20km 2015

Classement généralNomPrénom N° DossardCategorieTempsClassement Catégorie
1MURAGAJosephat3SEM01:06:401
2LETELLIERLoic6SEM01:06:482
3ONANIJackson Omwoyo4SEM01:07:173
4LEFRANCStephane7SEM01:08:534
5BENHARIMokhtar5V1M01:09:181
6INDONGORUBEN2SEM01:09:375
7YRISChristopher9SEM01:09:396
8TAMBWEPatrick1SEM01:10:387
9ROUXELVincent705SEM01:10:408
10GUILLOLudovic852SEM01:10:499
11LE MEURXAVIER29SEM01:11:5510
12LACOMBERegis8V1M01:14:212
13TANGUYFABIEN206SEM01:14:3011
14CHEVRELStephane300V1M01:14:383
15DERRIENNICMorgad575SEM01:15:1912
16GODEAUeric774V2M01:15:391
17LOYERRONAN1035SEM01:15:4413
18PLANCKEPhilippe11V1M01:17:004
19LE VELLYFabrice714V1M01:17:005
20MAHEFrancois240SEM01:17:1614
21TESTAGery224SEM01:17:2915
22JOURDENJoel717V1M01:17:376
23DIASCARLOS259V1M01:17:567
24COQUILLONdidier653V2M01:18:112
25STEPHANREGIS848SEM01:18:1616
26LE MORVANChristophe865SEM01:18:2317
27LE CLERCChristophe825SEM01:19:1618
28LE GUYADECGilles394V1M01:19:198
29ARNAUDmorgan330SEM01:19:4919
30RECULEAUSylvain611SEM01:19:5120
31GRIMAULTDenis98V2M01:19:513
32LE CARLUERRegis602SEM01:19:5421
33LOMBAWilly527SEM01:20:0822
34LE COURRIARDLIONEL26V1M01:20:139
35VASSEURNATHALIE12V2F01:20:181
36GUIVARC'HPierre-Yves16SEM01:20:1923
37LE VAILLANTCHRISTIAN366V2M01:20:554
38LE ROUXDAVID817SEM01:20:5824
39LE QUELLENECJohan808SEM01:21:0025
40LE JEANNEPierre Casimir173V1M01:21:1410
41CHARMENTRAYSTEPHANE751V1M01:21:2111
42BOILLEAUOLIVIER459V1M01:21:2612
43PELLENmaryline979SEF01:21:331
44LE GALLJean-Jacques524V1M01:21:3413
45LE GOTJean-Christophe451SEM01:21:4326
46THEPAULTYouenn802SEM01:21:4927
47CARRIOUStephane642V1M01:21:5914
48LE FRIECDIDIER269V2M01:22:125
49FRAVALCedric765V1M01:22:1315
50CAMPEONSTEVEN453SEM01:22:2028
51ANDREArnaud76SEM01:22:3229
52PERRETONEmile560V1M01:22:3316
53LOREAUDavid519V1M01:22:3417
54LE BEUVANTMarie1054V1F01:22:341
55HOUSSIERYann946V2M01:22:386
56MONTEVILLERONAN301SEM01:22:4330
57LOYERGuenole636SEM01:22:5931
58GUEVELSTEPHANE368SEM01:23:1532
59SEVENNECYANN902V1M01:23:2518
60DANIELLOUGilles591V1M01:23:3219
61GARDEYDAVY361SEM01:23:3633
62LORETDavid234SEM01:23:3734
63DENMATMartial19SEM01:23:4535
64MARTINYANNICK458V1M01:23:5520
65LACROIXERNEST308V2M01:24:217
66RENOTNICOLAS238SEM01:24:2136
67LE HELLOCOBeno?t700SEM01:24:2837
68STILITELaurent944V1M01:24:5221
69ADAMEmmanuel588V1M01:24:5922
70STEPHANclaude643V1M01:25:0123
71DESCHAMPSMikael371V1M01:25:1024
72THERINFrederic388V1M01:25:1525
73THOMASYANNICK229V1M01:25:2226
74NICOLYves550V1M01:25:2527
75BODILISRonan1002V1M01:25:3728
76LE GALLBruno395V2M01:25:468
77BOIZARDTristan1003SEM01:26:1038
78LE HELLOCOGuillaume182SEM01:26:1239
79JACOPINMICHEL183V2M01:26:139
80CHAPEAUCyrille83SEM01:26:1640
81GRANNECStephane414SEM01:26:1841
82MOULINXavier343V1M01:26:1829
83ROUESOLANGE762V2F01:26:262
84DERRIENYANNICK870V1M01:26:2630
85DAUPHINCHRISTIAN444V2M01:26:2710
86MENGUYPhillipe776V1M01:26:3231
87POISSONPIERRICK675V2M01:26:3511
88LE ROYMaxime926SEM01:26:4042
89MAHEGilles294V2M01:26:4112
90LE MORVANGildas757SEM01:26:4543
91VILLEDIEUThomas791SEM01:26:4744
92FREYSebastien613SEM01:26:4945
93CAMELIStephane162V1M01:26:5232
94LE POCHEFabien44SEM01:26:5346
95HILLTrevor716SEM01:26:5547
96MAHYJean Luc676V1M01:26:5633
97LALLAURETBRUNO715V1M01:26:5634
98JANgwenael164SEM01:26:5748
99LOZAHICyvon417V2M01:26:5813
100HAGUETMICKAEL68V1M01:26:5935
101DROUINPhilippe679V1M01:27:0036
102LE BONRegis574SEM01:27:0249
103INIZANBasile621V3M01:27:031
104LE BOURVAYANNICK528V1M01:27:0637
105CORBESylvain826SEM01:27:1650
106LEYZOURWilly668SEM01:27:2151
107LE CORGUILLEMaxime677SEM01:27:2352
108LE VAILLANTNADINE367V1F01:27:252
109GUIBLAISHerve567V2M01:27:2614
110DEUNFPHILIPPE592V2M01:27:3015
111LE MINORJULIEN525SEM01:27:3153
112LE VOTFrederic936V1M01:27:3338
113NEDELECDominique571V2M01:28:0316
114LANOSArthur930ESM01:28:121
115OLIVIERFlorent286SEM01:28:2354
116OHAYOUNThomas175V1M01:28:3439
117AUFFRETMaxime18SEM01:28:3555
118LE MOALJerome47SEM01:28:4556
119GARCIAArnaud433SEM01:28:4957
120PRIGENTSylvain404SEM01:29:0258
121LE BOURVADidier767V1M01:29:0540
122ANDRENicolas208SEM01:29:0559
123JOUANDavid854V1M01:29:0941
124BOHAERYohann847SEM01:29:1060
125LE SCORNECERWAN273V1M01:29:1542
126MORVANRoland349V1M01:29:2443
127ROPERSClaude474V2M01:29:2517
128CUPOLORocco744V2M01:29:2818
129ROCABOYemmanuel785V1M01:29:3044
130LEOCADIEJean Louis1033V1M01:29:3145
131GOASDOUEMathieu482SEM01:29:3961
132HOCHARTeric858V1M01:29:4746
133LAIZETStephane150V1M01:29:5447
134OHRONDChantal935V1F01:29:583
135TIRELfred120SEM01:30:0062
136FERRECamille633JUM01:30:001
137RICHARDJOEL674SEM01:30:0063
138PIVOTVincent110SEM01:30:1064
139BAZILEClaude215V1M01:30:1248
140NICOLASHerve452V2M01:30:1519
141LE JANNOUFlavie222V1F01:30:224
142DUFORTArnaud124V1M01:30:2249
143POCHISylvain23SEM01:30:2365
144LOHOUSebastien333SEM01:30:2466
145TASSELEmeric118SEM01:30:3267
146NICOLASDANIEL918V2M01:30:4920
147MILHAUmarc606V1M01:30:5050
148BRIGANTYann389V1M01:30:5151
149ZWAHLENJulien485SEM01:30:5368
150HELARYNicolas278SEM01:30:5669
151PRUD HOMMEJEAN PIERRE171V2M01:30:5721
152LE JOLYDominique941V1M01:31:0052
153PRIGENTArnaud165V1M01:31:0053
154BARFABIEN279SEM01:31:0870
155LE ROUXHerve365V1M01:31:1154
156GETANEHDEREJE409SEM01:31:1871
157LE ROYPascal690V1M01:31:2355
158DELMOTTEdominique465V2M01:31:2822
159LE MEURPierre326SEM01:31:2972
160CAYREGwenael547SEM01:31:3373
161MERLUSSylvain30V1M01:31:3456
162LE VAILLANTErwann594SEM01:31:3874
163PROVOSTPascal830V2M01:31:3823
164PEZRONAnthony805SEM01:31:3975
165BEVIEREClaude680V3M01:31:422
166LE MEURJean Baptiste325SEM01:31:4576
167GUITTONBertrand Romain893V1M01:31:4657
168MADECPatrice920V1M01:31:5158
169GUELATloic481V1M01:31:5359
170ABGRALLbernard538V1M01:31:5660
171CLOARECPhillipe770V1M01:31:5661
172LE BRICQUIRRomain894SEM01:31:5877
173BAHONJean-Baptiste943SEM01:32:0078
174REMYGuillaume178SEM01:32:0279
175LE BONHOMMEErwann509SEM01:32:1380
176QUEMENERBruno354V2M01:32:1424
177MOYSANPATRICE612V2M01:32:1825
178JULOUYannick768V1M01:32:2962
179UNVOASeric641V1M01:32:3063
180JAOUANNETJEAN MARIE155SEM01:32:3181
181DIZETjean-marc608V2M01:32:3226
182FRANCESCHINbruno997V1M01:32:3364
183GUEVELPhilippe292V1M01:32:3365
184LE GALLBenoit962SEM01:32:3582
185DESURYARNAUD745V1M01:32:3666
186LOZAHICKevin909SEM01:32:3783
187RAULTCedric255SEM01:32:4084
188LE PALUDJulien607SEM01:32:4185
189SERANDOURMaxime293SEM01:32:4486
190JANNETPierre1025SEM01:32:4687
191COURBOULINDominique38V1M01:32:4867
192LE BIVICPatrick555V2M01:32:4927
193STEPHANYoann531ESM01:32:502
194LADRAITthierry780V1M01:32:5168
195COGNARDRene436V2M01:32:5328
196SORSThomas1050V1M01:32:5369
197GOUEREDOMINIQUE651SEM01:32:5588
198TANAZACQJezekael284SEM01:32:5689
199LENGLETyannick159SEM01:32:5790
200KERENFLECHyoann925SEM01:32:5891
201HAMONArthur869ESM01:33:013
202MAROSMARGOT357ESF01:33:011
203GUILLOUHubert650V2M01:33:0129
204PARRAVictor283SEM01:33:0392
205LE NORMANDGwenn1031ESM01:33:064
206POULENCHRISTOPHE671V1M01:33:0870
207LE BRECHBRUNO604V1M01:33:0971
208MOREAUBertrand1038V1M01:33:1272
209DOLLESebastien212SEM01:33:1293
210GUEZOUMICHEL749V1M01:33:1473
211LE PEUC'Hmickael40V1M01:33:1574
212LEVENEJACKY486SEM01:33:1894
213ANDRERenaud559SEM01:33:2295
214DIRAISONEmmanuel964V1M01:33:2375
215PELINGREMatthieu748SEM01:33:2596
216MASSEpierre912ESM01:33:275
217NOELMatthieu840SEM01:33:2897
218MORFOUACELo?c833V2M01:33:2930
219LE MORVANyvon398V2M01:33:3231
220LE MEURERIC539V1M01:33:3376
221MAROSDIDIER356V2M01:33:4232
222BOURRIQUENPascal312V2M01:33:4433
223MELAINEFranck851SEM01:33:4998
224GARCIAGreta430SEF01:33:502
225ORYStephan204V1M01:33:5077
226MEVELMaxime732SEM01:33:5199
227TOUPINSimon523SEM01:33:52100
228GUILLAUMEYvan711V1M01:33:5678
229SAULNIERMichel838V1M01:33:5779
230BAYONChristophe320V1M01:34:0380
231LE ROUXVanessa500V1F01:34:095
232DELANOEXavier561V1M01:34:1181
233HAUETQUENTIN199SEM01:34:16101
234HAMONOJean-Christophe577V1M01:34:2082
235LE BIHANMarc727SEM01:34:23102
236CHASSETUILLIERPATRICK1062V2M01:34:2634
237RIVOALLANSTEVEN864SEM01:34:30103
238GARELRomain590SEM01:34:32104
239LE GALLJean-Luc261V3M01:34:363
240LAMANDEWilliam14SEM01:34:39105
241MAHELUC871V2M01:34:4035
242LE BUGLEpatrick1028V2M01:34:4336
243LE MAZIERMICHEL537V2M01:34:4537
244THOMASMichel917V2M01:34:4638
245MESAISESebastien743SEM01:34:48106
246CHACONRaphael896V1M01:34:4983
247KERSUZANStephane57V1M01:34:4984
248LAVILLEnicolas207SEM01:34:50107
249JUHELDAVID648SEM01:34:57108
250CHAPELVeronique263V2F01:35:003
251SUREAUChristophe327SEM01:35:02109
252OLIVIERSebastien285SEM01:35:04110
253HOUDARTFRANCK91V2M01:35:0739
254CITEAUjulien729SEM01:35:12111
255BILLAUDDOMINIQUE220V2M01:35:1440
256HENRYPhilippe760V1M01:35:1685
257ERNOTsebastien34SEM01:35:20112
258DAMBRINEEdouard146SEM01:35:21113
259LEMAITREbenoit790SEM01:35:26114
260LE MEVELYANNICK130V1M01:35:2886
261AUFFRAYJean-Louis295V3M01:35:314
262LAMAREMICKAEL184SEM01:35:32115
263MAZZOLININicolas17SEM01:35:35116
264DUFRENEIXStephane202SEM01:35:36117
265ROUINSARDPierre49SEM01:35:40118
266LOYERBEATRICE503V1F01:35:426
267LABROTGuillaume319SEM01:35:44119
268LE FRIECRodolphe551ESM01:35:506
269HUONTHIERRY710V1M01:35:5387
270LAUDRENArnaud548SEM01:35:55120
271GUYOTJean-Joseph899V1M01:35:5688
272ROUVILLAINJulien726SEM01:35:58121
273FOREYJEAN LUC260V1M01:35:5989
274GEFFROYJacques358V1M01:36:0590
275JOLIVETBenoit492SEM01:36:06122
276SEITETHIERRY310V2M01:36:0741
277BEDFERTEmmanuel223SEM01:36:10123
278DYWICKINicolas144SEM01:36:13124
279MARRECMalo913ESM01:36:147
280DERRIENLAURENT449V1M01:36:1591
281SALIOULaurent540V2M01:36:1642
282LAUDYBenoit489V1M01:36:1792
283REBOUXNicolas345SEM01:36:18125
284LECLERCQSebastien117SEM01:36:18126
285TEXIERsandrine689V1F01:36:207
286MUTRICYTHOMAS253V1M01:36:2393
287PONZABernard392V4M01:36:241
288DELLIOUBruno552V2M01:36:2543
289STRUILLOUPatrice914V1M01:36:2694
290BERNARDPHILIPPE270V1M01:36:2795
291LE BONNIECNicolas938SEM01:36:39127
292MAGUINEmmanuel1037SEM01:36:42128
293NICOLVincent806SEM01:36:44129
294TOUPINErwan522SEM01:36:46130
295MORANGEBriag115SEM01:36:47131
296SAUGEOTChristian510V2M01:36:5344
297LE ROUXAlain649V1M01:36:5996
298LE ROUXDavid511V1M01:36:5997
299CHANDEMERLEclaude507V1M01:37:0398
300LANGLAISPatrice545V2M01:37:0545
301MARTINESCUDimitri822SEM01:37:09132
302CHACONLILIAN39V1M01:37:1099
303LE JUNTERKenan266ESM01:37:138
304PICOULTYOANN334SEM01:37:16133
305KIPPELENJean-Baptiste450SEM01:37:17134
306LE GOFFICLaurent999SEM01:37:18135
307DELANOERegis205SEM01:37:25136
308BOISSYChristophe789V1M01:37:25100
309LE MENremi149V2M01:37:2946
310GILLARDMarie annick321V2F01:37:304
311LHOTELIERJEAN-LUC331V3M01:37:305
312DELANOEYvonnick1010V1M01:37:34101
313MARQUES FERNANDESJorge557SEM01:37:37137
314DELISLEHerve707V2M01:37:3947
315DELCLAUXLAURENT1011V1M01:37:41102
316CAVANpierre-yves832V1M01:37:43103
317LE JANNERONAN177SEM01:37:43138
318FOUREAlain968V2M01:37:4648
319RAOULERWAN885V1M01:37:48104
320LE GUENNECYOHANN939SEM01:37:48139
321VERGOSAntoine72SEM01:37:50140
322DUEDALLaurent937SEM01:37:51141
323LE NOUVELFABIEN554SEM01:37:53142
324JEGOUICBaptiste990SEM01:37:53143
325LE COZVincent784V1M01:37:54105
326LE MANAC HMikael837SEM01:37:56144
327HEBELPIERRE750SEM01:37:58145
328MAREY-SEMPERMIGUEL783V2M01:38:0049
329SOARESJeremy342SEM01:38:04146
330NICOLASKevin564SEM01:38:06147
331DOGNADIDIER139V1M01:38:07106
332PIESSETSeverine563SEF01:38:083
333LE ROYYannick141SEM01:38:08148
334LE CHEVALIERJean-Michel163V1M01:38:10107
335CHEREAUEtienne385V1M01:38:12108
336ARMANDdominique350V2M01:38:1250
337FAOUENMael352SEM01:38:19149
338GUHELYannick605V1M01:38:19109
339ABOMNESDavid603SEM01:38:19150
340PEZRONNicolas490SEM01:38:22151
341GEORGEMarie Paule143V2F01:38:255
342OLLIVIERGerard401V3M01:38:266
343BELLANALIZE20SEF01:38:274
344LE DEVEHATDominique595V1M01:38:28110
345HOUZEJerome986SEM01:38:31152
346LAFORETSebastien201SEM01:38:32153
347GUENNOVincent313SEM01:38:34154
348DOREJonathan646SEM01:38:37155
349OLLIVROHERVE626V2M01:38:4151
350HENRYlaurence247V1F01:38:458
351RIOUEvan988SEM01:38:45156
352FAIJANLise42SEF01:38:485
353YANNthierry516V1M01:38:49111
354RIVIERPatrick867V1M01:38:49112
355GUILLOTCyrille1023V1M01:38:50113
356HENRIOEmilie33SEF01:38:596
357LE PHILIPPEPatrick967V1M01:39:02114
358CONNANFrederic241V1M01:39:06115
359DUEDALPierre-Yves341SEM01:39:10157
360CARROUWilliam948SEM01:39:11158
361POULIQUENLIONEL556V1M01:39:13116
362DELABORDEThomas756SEM01:39:14159
363NICOLRegis797SEM01:39:14160
364CORLOUERChristian55V1M01:39:16117
365PRODHOMMESTEPHANIE157V1F01:39:229
366HENRYEmmanuel250SEM01:39:24161
367BLANCHARDDavid836V1M01:39:24118
368HULMEHERVE209V1M01:39:29119
369LE MARRECThomas338SEM01:39:31162
370LE GALNICOLAS793SEM01:39:41163
371ANGOUGEARDlionel506V1M01:39:43120
372DEVAUXRobert772V3M01:39:457
373TURPINKevin963SEM01:39:47164
374ZEGWAARDPeter1056V1M01:39:47121
375COLLONGUESemile328V1M01:39:50122
376HAMONPhilippe619V1M01:39:51123
377COZANNETSAMUEL190SEM01:39:52165
378LABEYRIEsebastien958V1M01:39:54124
379LE STANCPhilippe597V1M01:39:54125
380RICHARDEAUMelissa828SEF01:39:567
381STOLZThibaut794V1M01:39:57126
382CAVALIERMichel461V1M01:39:58127
383MONCHOIXChantal264V2F01:39:596
384OHRONDPascal934V1M01:40:00128
385TANGUYELODIE1051SEF01:40:018
386HONNETRichard659V1M01:40:03129
387CHEVALIERDavid15SEM01:40:04166
388LE MOANSERGE305V3M01:40:078
389LE MORVANGael874V1M01:40:08130
390QUILLIVICPascal598V2M01:40:0852
391STEPHANOdile532V1F01:40:1210
392LAVIGNASSELoic788SEM01:40:12167
393ETIENNEjean-paul290V2M01:40:1353
394CARRIOUHenri924SEM01:40:17168
395CLOARECMIREILLE413V2F01:40:187
396LE DEUCGael497SEM01:40:24169
397LE QUELLENECROMAIN304SEM01:40:25170
398LE DANTECJulien58SEM01:40:30171
399DE CASTROStephane945V1M01:40:39131
400GREGOIRECyrille752V1M01:40:41132
401ROGGEJean Michel1048V1M01:40:41133
402LE MEHAUTECLAUDE985V2M01:40:4454
403DIDIERRONAN734V1M01:40:44134
404CHRISTOPHMark1005V2M01:40:4655
405NAOURFABRICE153V1M01:40:48135
406SEGALOTTIBruno235V2M01:40:4956
407BLANCHARDYvon628V1M01:40:53136
408COPYLudovic961SEM01:40:57172
409LE JOLYTHIERRY627V1M01:40:57137
410BELMONEric569V1M01:40:58138
411DERRIENJoel298V3M01:41:029
412LE HOUERFFYANN447SEM01:41:04173
413GAUTIERSebastien684SEM01:41:09174
414MARQUES FERNANDESMelanie558SEF01:41:159
415MONCHOIXPascal265V2M01:41:1657
416BOUGERERIC589SEM01:41:19175
417BODIOUJeremy188SEM01:41:21176
418SCLOTOURGAETAN31SEM01:41:22177
419THOMASDOMINIQUE987V1M01:41:23139
420BERTHOUGILLES442V1M01:41:29140
421LE PIVERTChristophe487SEM01:41:31178
422REMONDAnne Marie245SEF01:41:3210
423LEMESLEludovic478SEM01:41:34179
424BERTHELOTPhilippe405V1M01:41:36141
425QUINIOMARC336V2M01:41:3858
426CARDONOLIVIER652V2M01:41:3859
427TREDANBrieuc798SEM01:41:41180
428HEMERYREJANE267V2F01:41:448
429BOUETTESONIA882V1F01:41:4511
430RAGOTJean-Francois856V1M01:41:49142
431LEPETZPierrick812V1M01:41:51143
432LE CORNECDamien583SEM01:41:54181
433LE GUERNFLORIAN28SEM01:41:56182
434LANIQUEEric421V2M01:41:5660
435BUISSONPierre441V2M01:41:5761
436GUILLOUJean Paul951V2M01:41:5962
437GERARDCorinne587SEF01:42:0111
438BOUTOILLEDamien662V1M01:42:02144
439SCHIMAludovic379V1M01:42:03145
440BOURDONReginald70V1M01:42:03146
441DELVALLEbruno111V2M01:42:0463
442MARIEEric25V2M01:42:0564
443DENMATJean Francois670V3M01:42:0610
444TRADECPascal1058V2M01:42:0665
445SIMOULINFABRICE862V1M01:42:07147
446ALLANCONESTELLE839V1F01:42:0712
447LE ROUXJacques499V1M01:42:09148
448BIGUECatherine364V1F01:42:1113
449PESTELJerome135V2M01:42:1266
450GARDANMatthis351SEM01:42:12183
451PESTELMarie-Odile134V2F01:42:139
452CONANbernard318SEM01:42:15184
453MEUDICMARC901V2M01:42:1967
454LE BONNIECJean Luc622V3M01:42:2011
455POULAINFABRICE562V1M01:42:24149
456QUERNEMichel1043V2M01:42:2768
457LE ROUXJerome504SEM01:42:27185
458HAGUETESTELLE78V1F01:42:3314
459GUILLOSSOUJEAN257V2M01:42:3669
460PERONGuillaume408SEM01:42:43186
461CONANChristophe739V2M01:42:4670
462COLANGEFrancois565V2M01:42:4871
463ROULANDJacques339V3M01:42:5112
464LE MOIGNEarnaud737V1M01:42:55150
465OLLIVIERGildas991V1M01:42:55151
466LE BEUVANTMARIE855V1F01:42:5515
467GILQUAINPatrick67V1M01:42:56152
468KERC'HROMMyriam105V1F01:43:0016
469FERCOQDANIEL678V2M01:43:1072
470AVICEBruno227V2M01:43:1173
471GAUTIERPascal584V2M01:43:1374
472LE FURBernard378V2M01:43:1575
473PERSONALAIN669V2M01:43:1776
474BROSSAYALAIN196V2M01:43:2077
475MEGNEGNEAUsylvain820SEM01:43:30187
476FROMENTOUXSOPHIE755V1F01:43:3217
477HENRYJerome1060SEM01:43:33188
478LAPLANCHEMathieu929SEM01:43:35189
479CAMBOURAKISchristophe112SEM01:43:52190
480GUERINDIDIER754V1M01:43:54153
481TIRELSophie121SEF01:43:5512
482REDONBruno494V2M01:43:5878
483LE GLASSElisabeth468SEF01:44:0313
484MADGREGORY514SEM01:44:04191
485RINGENBACHVINCENT425V1M01:44:05154
486PHILIPPEOLIVIER323V1M01:44:09155
487LETELLIEROphelie432ESF01:44:142
488PERONYVAN272V1M01:44:16156
489PRIJACLudovic687V1M01:44:18157
490ALLAINMATerwan959SEM01:44:19192
491LE MENDOMINIQUE448V2M01:44:2279
492DAVIDMICKAEL907V1M01:44:38158
493HENRYERWAN427V3M01:44:3913
494BANDEIRAYAO599SEM01:44:40193
495LE SAINTPierre890SEM01:44:41194
496KERAMBRUNGilles905V1M01:44:44159
497HUYGHUES-BEAUFONDCaroline573V1F01:44:4418
498HUYGHUES-BEAUFONDFrancois572V1M01:44:44160
499CADIOUJean1055V3M01:44:5014
500LE BARONmickael581V1M01:44:53161
501JOSSEDidier108V2M01:44:5880
502COCULOJulien702SEM01:45:00195
503CHAKIPierre664V2M01:45:0981
504ZAJACChristophe79V1M01:45:11162
505CAILLATDidier181V3M01:45:1315
506COURTEILLEKevin889SEM01:45:16196
507REBOURpierre329SEM01:45:18197
508JEZEQUELMatthieu709SEM01:45:19198
509GOURDETPAUL13V3M01:45:2116
510PINONJean-Christophe402V2M01:45:2382
511ALNODidier438V1M01:45:26163
512CHOVEAUEric579V2M01:45:3083
513GUILLOIan467SEM01:45:34199
514KIBLEURCHRISTOPHE281V1M01:45:40164
515BRAMOULLESeverine36V1F01:45:4119
516BRAMOULLEGuillaume37V1M01:45:41165
517GUILLOUPhilippe895V1M01:45:42166
518MAHESebastien491SEM01:45:43200
519DAIREOlivier335SEM01:45:43201
520CORREDIDIER568V1M01:45:46167
521AMICELVincent460SEM01:45:50202
522BOURVAlionel434V2M01:45:5184
523LOZAHICgaelle416V1F01:45:5220
524GRALLErwan706V1M01:45:53168
525AUFFRETClaude410V2M01:45:5585
526LOURYGuillaume884SEM01:45:56203
527LE TYNEVEZJulien845SEM01:45:57204
528HILLIONXavier923SEM01:45:59205
529PERROTAntoine435V1M01:46:01169
530LE LARDICOLIVIER868V1M01:46:02170
531LOYERYannig694SEM01:46:09206
532GROSMAITRESebastien975V1M01:46:11171
533CRUBLETyannick724V1M01:46:12172
534ROLLANDhubert148V2M01:46:1486
535GUEGUENIATPHILIPPE24V2M01:46:1787
536LE GOFFBERNARD131V2M01:46:1888
537OCHANDOElise393SEF01:46:2014
538CHUGA ABELIJean-Louis578SEM01:46:22207
539COSSONLoic225V3M01:46:2417
540ESSLINGDenis741V2M01:46:2589
541MAINGUYNADINE673V2F01:46:2510
542LANTOINEEric819V2M01:46:2690
543CALVEYRACjeremy740V1M01:46:28173
544LE GUENNECphilippe92V1M01:46:28174
545RECULEAUAnne Solene1046SEF01:46:2915
546PINELVIRGINIE322V1F01:46:2921
547LE HELLOCOGWENAEL586V1M01:46:32175
548LE CORREphilippe632V1M01:46:34176
549LAZOUYves422V1M01:46:35177
550LE MENNECGuillaume747SEM01:46:46208
551EONBernard174V3M01:46:4818
552LASSONlaurent362SEM01:46:50209
553LUSSOTEric469V1M01:46:51178
554LEUXJEAN PIERRE553V3M01:46:5419
555SERANDOURJEAN-NOEL634SEM01:46:56210
556DOREDIDIER169V1M01:47:00179
557FERCOQ STEPHANHelene484SEF01:47:0116
558SOARESMatthieu21SEM01:47:02211
559LE MARRECCLAUDE100V2M01:47:0791
560LEC HVIENPierre976V2M01:47:1492
561PONGERARDgerard211V3M01:47:1420
562CHARLESFRANCOIS-YVES876SEM01:47:16212
563JULOUGeorges533SEM01:47:17213
564BOSSEMickael970V1M01:47:28180
565DALIBOTEric978SEM01:47:32214
566SORETSYLVAIN666SEM01:47:40215
567RAYNAUDClement718SEM01:47:47216
568MARCELKevin291SEM01:47:49217
569VELLYFrancois795SEM01:47:51218
570ANDRIEUXHugo849SEM01:47:51219
571LAMORTMORGAN324SEM01:48:01220
572PERRINNicole412V2F01:48:0511
573LE GUILCHERXAVIER903V1M01:48:12181
574IGIGABELkevin955SEM01:48:15221
575MORFOUACEBlandine834V2F01:48:1612
576LE MEHAUTEthierry906V1M01:48:19182
577LE RUJEAN-LUC982V2M01:48:2193
578JACOBClementine954SEF01:48:2717
579LESCOPSebastien473SEM01:48:32222
580LIVOLANTdidier886V2M01:48:3794
581GOUDJILMohand277V1M01:48:37183
582PELTIERThierry792V2M01:48:4095
583LE GUILCHARDFabienne129V1F01:48:4222
584BERVETPhilippe786V3M01:48:4421
585LE PAPELIONEL307V1M01:48:46184
586RICHARDEAUMichel829V2M01:48:4796
587CASTANETRomain624SEM01:48:49223
588DOREEYann1014JUM01:48:492
589LENGLETnolwenn160SEF01:48:5118
590PAUGAMMatthieu363V1M01:48:53185
591LIENARDSebastien214V1M01:48:55186
592BEHAGHEL DE CAIXSolene370SEF01:48:5819
593BERNIERMATHIEU928SEM01:49:00224
594GUILLOTMATHILDE927SEF01:49:0120
595DETANTEGwendal846SEM01:49:02225
596URVOYFrancis663V1M01:49:04187
597GITTONvirginie373SEF01:49:0521
598LETHENETIngrid736V1F01:49:0623
599ALEXANDREPIERRE873V2M01:49:0697
600BRIANDJerome966SEM01:49:07226
601DIDOTJEAN MARC723V1M01:49:14188
602MOLACDenis221V1M01:49:17189
603COTTELChristophe857V1M01:49:19190
604LE LEVIERLAURENT237V1M01:49:20191
605ABIVENSTEPHANE246V1M01:49:22192
606LE CAMronan51V1M01:49:28193
607THOMASYves403V3M01:49:3522
608PHILOUZEAlexandre879SEM01:49:39227
609GAUTIERLydie638V2F01:49:4113
610JULIENNEOlivier1026V2M01:49:4298
611LASSALLEBernard375V3M01:49:4523
612TRAVERLUC439V2M01:49:4799
613JAOUENMIKAEL981V1M01:49:52194
614PAMARTDENIS974V2M01:49:55100
615HELENE-KIBLEURCHRISTELLE282V1F01:49:5624
616CAMPOSLaurent814V1M01:49:59195
617DROUMAGUETPierre400SEM01:50:04228
618DESNOSALAIN517V2M01:50:08101
619LE COURTESGREGORY132SEM01:50:09229
620JOUANNYAlain303V2M01:50:11102
621HENRYERIC952V2M01:50:17103
622ANDREbruno137V2M01:50:20104
623LE BASJean Francois1006V3M01:50:2524
624VALDaniel360V2M01:50:30105
625COLLETYannick381V2M01:50:30106
626GUYONChristophe248SEM01:50:33230
627TATONYannick656V2M01:50:39107
628LE MOIGNAlain123V3M01:50:4025
629LE MORVANclaire397V2F01:50:4114
630OLLIVIERSYLVAIN337SEM01:50:42231
631LANEVEREGregory827SEM01:50:45232
632THEAUDyves931V1M01:50:49196
633GREAUJocelyn386ESM01:50:519
634QUEFFEULOUCHLOE280SEF01:51:0622
635BANIELNELLY271V3F01:51:071
636CARADECMarie-Claire309V2F01:51:0715
637DE GIORGISMARIE863SEF01:51:0923
638COUMOULSylvain383V1M01:51:17197
639GERARDFranck508SEM01:51:22233
640LE BRISYann252V1M01:51:25198
641PREMELAymeric850SEM01:51:27234
642LE BANNIEReric493V2M01:51:28108
643GUERNIGOUFabien475SEM01:51:29235
644BALCOUChristophe995V1M01:51:30199
645SALAUNChristophe708SEM01:51:33236
646FEATAnne688V1F01:51:3725
647OLLIVIEREmmanuel498SEM01:51:39237
648GAYJerome210V1M01:51:41200
649GELARDSebastien89SEM01:51:43238
650CAMIONAng?lique704SEF01:51:4724
651CORREVERONIQUE686V1F01:51:4726
652HEMIDYMaxime353SEM01:51:57239
653GUYOMARDEugene258V3M01:52:0226
654LA GREEChristian980V2M01:52:05109
655ROULANDVeronique340V2F01:52:1016
656RAULTPASCAL359V2M01:52:11110
657RAULTDANIEL1045V2M01:52:12111
658ROUZAUTveronique158V1F01:52:1327
659LE LAITPatrick424V2M01:52:15112
660VUILLEMARDGilles534V2M01:52:25113
661DEVALLIEREaurelien1013SEM01:52:25240
662JOBICYannick779V2M01:52:27114
663SEGUINDenis542V2M01:52:34115
664LE BOUDERALAIN658V2M01:52:44116
665BOUREURPATRICK600V2M01:52:45117
666SIMONPIERRE900V2M01:52:45118
667LE BAILNATHALIE332V1F01:52:4528
668LE CARBOULLECPascal585V1M01:52:48201
669MAILLARDVincent775SEM01:52:53241
670LE LAITChristian446V2M01:52:54119
671GALLISXavier515V1M01:52:56202
672COHINJean Yves535V3M01:52:5827
673LETOURNEURMathilde777SEF01:53:0025
674ZAMPEZERosa429V2F01:53:0117
675LE JUNTEREwen911SEM01:53:02242
676WLODARCZYKserge1053V2M01:53:04120
677LOPEZEmmanuel769SEM01:53:07243
678MESSAOUDISOWFIAN251SEM01:53:08244
679LOARERTHIERRY529V2M01:53:10121
680FEGARANNE233V2F01:53:1518
681DIENERJean-Denis908V2M01:53:16122
682GAILLARDMARTINE193V2F01:53:1619
683PETITDaniel288V3M01:53:1828
684JUNCKERSebastien35SEM01:53:21245
685LE ROLLANDyann609V1M01:53:23203
686LE PARQUIERSEBASTIEN125SEM01:53:25246
687GOURHANTPierrick456SEM01:53:30247
688ROSPAPEYann701V1M01:53:35204
689COSSONRomuald411SEM01:53:37248
690LE COZJean168V4M01:53:382
691MENARDOlivia989SEF01:53:4326
692DROUMAGUETYves399V2M01:53:44123
693OLLIVIERPierre502SEM01:53:45249
694DE CASTROJennifer582SEF01:53:4627
695GUYOMARDSylvain151SEM01:53:47250
696DELISLESOPHIE198V1F01:53:4729
697DROUMAGUETGoulven133SEM01:53:48251
698LEMESLEAUDREY479SEF01:53:4828
699CATHOUERWAN758SEM01:53:49252
700BOUGEANTPIERRE-YVES71V2M01:53:51124
701NICOLERWAN697SEM01:53:56253
702LE BRAScecile644SEF01:53:5629
703LE MOALCAMILLE877SEM01:53:57254
704LE CALVEZYOANN818SEM01:53:58255
705RAISONALAN942SEM01:53:59256
706DORESTEPHANIE170V1F01:54:0430
707OLLIVIERSt?phanie933V1F01:54:0731
708OLLIVIEREric932V1M01:54:07205
709NOELJEAN372V2M01:54:08125
710NICOLASMAEL698SEM01:54:09257
711COLLIAUXBenoit994SEM01:54:11258
712DEVAEREMatthieu289ESM01:54:1310
713TILLEULCarine66V1F01:54:1432
714TRIFARDFrancois660V3M01:54:2329
715LE GOFFPierre316V1M01:54:26206
716LE LOARERFrancois703SEM01:54:27259
717LE JEANNEPaul172V4M01:54:293
718COWTONLucy1057SEF01:54:3630
719PRIOUXNicole103V2F01:54:4320
720ECHEVESTYannick892V1M01:54:44207
721LAMTung275SEM01:54:58260
722LE BIHANPASCAL420V1M01:54:59208
723FORTINEtienne41ESM01:55:0011
724MORKERKENLaurent530V2M01:55:15126
725LE BRISYolande543V2F01:55:1721
726GLATREdaniel544V2M01:55:19127
727DANIELLOUYANN922V2M01:55:21128
728FONTAINEThierry466V1M01:55:21209
729PIPAUDmagguy526V1F01:55:2233
730GRIMAULTAdele96SEF01:55:2531
731GRIMAULTMarie Cecile97SEF01:55:2532
732ROUAUXSAMUEL1049SEM01:55:27261
733JAMBETARMELLE415V3F01:55:362
734BOCQUIERalain472V2M01:55:39129
735MENIERJean-Sebastien815SEM01:55:47262
736LE BRETONAurelie104SEF01:55:4933
737DE BEAUMONTAmaury186V2M01:55:52130
738LE GOFFPhilippe262V2M01:56:07131
739FLOURYLionel950V1M01:56:08210
740SOUFFLETHELENE232V1F01:56:1034
741MONNIERKaren610SEF01:56:1034
742LE DEUCMARC536V2M01:56:12132
743CADIERwilliam52V1M01:56:14211
744RODAYERTony692SEM01:56:16263
745JUGUETALAIN344V2M01:56:24133
746ISERRene142V2M01:56:25134
747MICHARDGeraldine735SEF01:56:3035
748DRUAISNathalie625SEF01:56:3136
749MONNIERDaisy140SEF01:56:3437
750CHAPONHerve629V2M01:56:35135
751PEZRONSolen176SEF01:56:3538
752MAINGUYPIERRE672V3M01:56:4330
753BARDINET-VAUTHIERmarie54SEF01:56:4739
754LABEYRIElaurence957V1F01:56:4835
755JACQthomas969SEM01:56:49264
756LE GORGEUJean810V3M01:56:5131
757QUINIOSophie88SEF01:56:5240
758PONDIJean-Christophe87V1M01:56:53212
759HAUTINFrancoise390V1F01:56:5836
760BOURLIERfabrice22SEM01:57:05265
761CORBIONJean128V2M01:57:07136
762FRAMMERYDelphine126V1F01:57:1037
763GILLOISYoann127SEM01:57:10266
764RABOZZIPierre1044SEM01:57:11267
765LACOMBEfanny631SEF01:57:1641
766LE GUENGilles1059V2M01:57:17137
767ROLLANDyves630V2M01:57:17138
768BIHANJean Sebastien287SEM01:57:20268
769LE BRIERESabine315V1F01:57:2038
770BELMONTLaure872V1F01:57:2639
771RIVIERDominique866V1F01:57:2840
772LE TENOUJEAN SEBASTIEN347SEM01:57:29269
773LE MANCHECEUGENIE348SEF01:57:2942
774NENEZchristian1040V2M01:57:39139
775LE BRASLAETITIA616SEF01:57:4643
776LARMETMICKAEL615V1M01:57:47213
777KERVARECHerve107V3M01:58:2132
778LE MENERPascal699V1M01:58:28214
779LE MARRECErwan623SEM01:58:42270
780MARCHANDVANESSA682SEF01:58:4344
781LE MAGOAROUPatricia667V2F01:58:4322
782DROUINcarole731V1F01:59:0941
783LEC HVIENFRANCOISE1032V2F01:59:1023
784JAFFRYKarine823V1F01:59:1342
785RAULTAnne Helene231SEF01:59:1645
786LE GAFFRICGuillaume152SEM01:59:19271
787LE GAFFRICAUDE167SEF01:59:1946
788HARSIGNYMARIE136SEF01:59:2247
789HARSIGNYBenoit787SEM01:59:22272
790GAUDINNicolas27SEM01:59:31273
791TURBANAntoine728SEM01:59:32274
792ADAMJulien618SEM01:59:33275
793MENGUYJean-Charles693V2M01:59:36140
794RENAULTOllivier853V1M01:59:37215
795LE MOIGNROZENN971V1F01:59:3843
796LE MENRomain800SEM01:59:39276
797GUYETBruno617V2M01:59:40141
798NOWAKfleur993SEF01:59:4548
799CAMPOSThierry947V1M01:59:47216
800BAUDUINThomas463SEM01:59:47277
801JULIENJean Rene921V1M01:59:51217
802POINTREAUJames407V3M01:59:5333
803KERLENFrederique426V2F01:59:5424
804DOSSERGilles898V1M01:59:57218
805SMITScarine50V1F02:00:0144
806BEUZELINvanessa998V1F02:00:0245
807MARTINKim861SEM02:00:05278
808RIVIERStephane799V1M02:00:11219
809POILPOTMickael380V1M02:00:11220
810PULVINCyril45V1M02:00:14221
811HARSCOETGERALDINE431V1F02:00:1646
812LE PALUDPierrick654V2M02:00:25142
813VASSEURMary778SEF02:00:2649
814CONNANPATRICE122V1M02:00:28222
815BEUBRYGURVAN95SEM02:00:29279
816CHAPPEVIRGINIE244SEF02:00:3350
817ROYE COLINcharlotte147SEF02:00:3451
818JALAISFrancoise464V1F02:00:3947
819MICHELROZENN64V1F02:00:4448
820LE COZNicolas80SEM02:00:44280
821ROULANDpascale720V1F02:00:5549
822ROULANDalain721V2M02:00:56143
823COCHOUDANIEL593V4M02:00:594
824REUNGOATDaniel764V2M02:01:01144
825QUERNECatherine763V2F02:01:0125
826GUENNOIsabelle314V2F02:01:0226
827LISSILLOURGabriel809V1M02:01:11223
828ROPARSMickael875V1M02:01:13224
829PRIGENTPAUL804V3M02:01:2034
830GUILLEMOTJean-Pierre65V3M02:01:2635
831FEUVRIERJACQUELINE904V1F02:01:3450
832EVENOLIVIER773V2M02:01:34145
833BOCTIRaymond897V1M02:01:38225
834BROUDICNoel423V1M02:01:45226
835GAUTIERGildas454V1M02:01:47227
836LE BONNIECYves841V3M02:01:5636
837LAURENTJean-Michel733V3M02:02:1337
838LE ROUXEmmanuel62V1M02:02:30228
839PILLAUDBruno512SEM02:02:38281
840PILLAUDchristophe488V1M02:02:38229
841LE PALLECthibault376V1M02:02:47230
842PATISSIERPascal655V1M02:02:51231
843FRESNAYJerome59V2M02:02:56146
844GAILLOTMarie156SEF02:03:0052
845KERMOALdidier730V2M02:03:03147
846GUYOMARPatrick541V2M02:03:13148
847LE PALUDALBERT973V3M02:03:2138
848GUILLOUNathalie189V1F02:03:2751
849GUILLONfranck910V1M02:03:29232
850HENRIOFrederic32V1M02:03:34233
851MADECJEAN-LUC194V2M02:03:36149
852LAPLANCHEDOMINIQUE781V1F02:03:4052
853LEBLANCDenise782V3F02:03:463
854ROULLEAUmanuela374SEF02:03:5653
855CREUSMARION681SEF02:03:5954
856NICOLAZOgildas753V2M02:04:15150
857LOMPECHChristian496V2M02:04:16151
858PASCALOlivier455V1M02:04:27234
859GOURIOUKarine696V1F02:04:3453
860GOURIOULaurent695V1M02:04:35235
861UGUENCARINE835V1F02:04:3554
862CHUIMERTISABELLE1007V1F02:04:4055
863GALDEANONicolas86V1M02:04:41236
864FERRONNadege185V1F02:04:5056
865FRESNAISPatrick236V3M02:04:5139
866DUFRESNEMARIE94SEF02:04:5755
867ANDREDIDIER746V3M02:05:0340
868ROSSIGNOLFrancois93V2M02:05:05152
869HARNOISEstelle116SEF02:05:1056
870BRIANDMaria428V1F02:05:2257
871VERNIERMarc48V2M02:05:33153
872LE GUENISABELLE418V1F02:05:3758
873MERCIERPASCAL960V1M02:05:43237
874BOUGEANTPaul406V4M02:05:505
875OLLIERANNIE645V1F02:05:5659
876COATHuguette843V3F02:05:564
877TOUDICAlain801V1M02:06:04238
878LAUNAYCeline63V1F02:06:0860
879KWAN-FANStephan476V1M02:06:32239
880COSTABERTRAND382V2M02:06:39154
881CATHOUSandrine759V1F02:06:4061
882ROBERGEXavier916V1M02:07:06240
883SERANDOURBaptiste216ESM02:07:0712
884JUBAULTMarie566SEF02:07:1057
885LE BLEIZMAUD956SEF02:07:1058
886PENNECAlain546V3M02:07:1141
887LE BOHECAline1027SEF02:07:1159
888JAMESMickael915V1M02:07:13241
889FEREREADRIEN1061SEM02:07:14282
890LE BOHECGael483SEM02:07:14283
891TANGUYANNE965SEF02:07:1460
892LE MARTELOTYves346V2M02:07:51155
893BARISELLEBenoit807SEM02:08:01284
894TALGUENAlain713V2M02:08:07156
895MAHELaurent831SEM02:08:22285
896PIGNEGilbert228V3M02:08:3042
897CAROFFANDRE761V4M02:08:426
898GAVOISOlivier953V1M02:08:51242
899THEBAULTChristophe984SEM02:08:57286
900BERTHOLOMAurelie685SEF02:08:5861
901GAUBERTg?rard1017V1M02:09:13243
902MINVIELLELaurence82V1F02:09:1662
903CADORETJean-Yves495V3M02:09:2843
904PENTECOTESophie480V1F02:09:2963
905LESCOATpascal883V1M02:09:45244
906LE TYNEVEZJEAN NOEL844V2M02:09:48157
907COLLOBERTDANIEL811V3M02:10:1044
908BERNARDTehani796SEF02:10:2262
909FERELLECChristophe43V1M02:10:35245
910UGUENVanessa596V1F02:11:1664
911MERELAnne-Helene580V1F02:11:3165
912LERAYMickael297V1M02:11:44246
913ROUEJean Michel766V2M02:11:45158
914MOUILLOTPATRICK256V2M02:11:50159
915SALAUNGaetan983JUM02:12:023
916NGHIEMEmma977SEF02:12:1363
917MICHARDCharlotte972SEF02:12:1464
918BOCQUIER-ALIXisabelle471V2F02:12:1427
919HENRYMarie Rose725V1F02:12:2266
920BOUGEARDSandrine317V1F02:12:3367
921DOBLERSebastien114SEM02:12:38287
922LEROYIsabelle813SEF02:12:4665
923LE GOASTERHenri pierre712SEM02:12:46288
924COATANHAYROSANNE996V1F02:13:0368
925LE GUENALAIN179V3M02:13:0545
926CLERXPASCAL1008V2M02:13:47160
927DUPUISPHILIPPE683V4M02:14:297
928DUMORTIERFABRICE113V1M02:15:03247
929CASTANIEJOELLE276V2F02:15:1528
930DONSANTIfrederique601V1F02:15:4169
931FRESNAYSylvie60V2F02:15:5229
932CASSANGgwenaelle940V1F02:16:1970
933GEFFROY-BOURDINNathalie46V2F02:16:4830
934BROUSSEAUAlain243V2M02:17:10161
935QUEMENERmichel387V3M02:17:1746
936GRIMAULTSylvie99V1F02:19:0871
937PARANTHOENMarina887V1F02:19:4872
938MENUTPHILIPPE888V2M02:19:48162
939TILLYRonan570V2M02:19:48163
940LE BIHANCaroline61V1F02:19:5073
941LAPLACEAnne102V1F02:21:0974
942BURYMarie yvonne84V2F02:21:0931
943CHEVALfanny101SEF02:21:1066
944ORHANLaura880SEF02:21:5667
945LOTTINAudrey620SEF02:22:3168
946QUILLIECHelene881SEF02:22:4969
947COADICFRANCOISE296V3F02:25:205
948MARTINMarie-Helene878SEF02:25:2170
949LE YAOUANCMaeva154SEF02:25:3871
950LE GOUGUECLaurent302V2M02:27:00164
951BAILLONMalory505V1M02:30:04248
952DOLLOAurore56SEF02:30:2572
953TROSSEILLEPhilippe661V3M02:30:5747
954RUELLECAROLE74SEF02:32:3673

Les commentaires sont clos.